Regional Weather Roundup
Issued by NWS Sterling, VA

Home | Current Version | Previous Version | Graphics & Text | Print | Product List | Glossary On
Versions: 1 2 3 4 5 6 7 8 9 10 11 12 13 14 15 16 17 18 19 20 21 22 23 24 25 26 27 28 29 30 31 32 33 34 35 36 37 38 39 40 41 42 43 44 45 46 47 48 49 50
000
ASUS41 KLWX 012310
RWRLWX

REGIONAL WEATHER ROUNDUP
NATIONAL WEATHER SERVICE BALTIMORE MD/WASHINGTON DC
600 PM EST SUN MAR 01 2015

Note: "FAIR" indicates few or no clouds below 12,000 feet
with no significant weather and/or obstructions to visibility.
 TC=TEMPERATURE CELSIUS

 * =Non NWS site. Station does not report precipitation (e.g. rain,
    snow, etc.), thunder, or fog.

DCZ001-MDZ009-015-VAZ040>042-051-053>054-020000-
WASHINGTON METRO

CITY           SKY/WX    TMP DP  RH WIND       PRES   REMARKS
WASHINGTON NAT LGT RAIN  33  29  85 S8        30.34F FOG     WCI  26
DULLES         FRZ RAIN  31  29  92 S5        30.31F
ANDREWS AFB    MIX PCPN  31  30  95 CALM      30.32F
FT BELVOIR     MIX PCPN  32  30  93 CALM      30.32F
QUANTICO       MIX PCPN  32  28  85 S9        30.36F WCI  24
COLLEGE PARK*  CLOUDY    32  32 100 S3        30.33F
LEESBURG*      MIX PCPN  32  32 100 S6        30.32F
MANASSAS*      FRZ RAIN  32  32 100 S7        30.32F
GAITHERSBURG*  CLOUDY    30  27  86 CALM      30.34F

$$

MDZ006>007-011-014-020000-
BALTIMORE METRO

CITY           SKY/WX    TMP DP  RH WIND       PRES   REMARKS
BWI AIRPORT    FRZ RAIN  31  29  92 SE3       30.31F FOG
MD SCIENCE CTR   N/A      1  32 100 MISG      30.34F
ANNAPOLIS      FRZ RAIN  29  27  92 MISG      30.34F FOG
FORT MEADE*    CLOUDY    32  30  93 SE5       30.34F

$$

MDZ012-015-019>023-020000-
MARYLAND EASTERN SHORE

CITY           SKY/WX    TMP DP  RH WIND       PRES   REMARKS
OCEAN CITY     MIX PCPN  32  31  96 N5        30.36F FOG
SALISBURY      LGT RAIN  34  30  85 NW3       30.37F FOG
BAY BRIDGE AP* MIX PCPN  30  30 100 S3        30.36F
CAMBRIDGE*     CLOUDY    34  32  93 CALM      30.35F
EASTON*        CLOUDY    32  32 100 CALM      30.39F FOG

$$

MDZ017>025-020000-
SOUTHERN MARYLAND

CITY           SKY/WX    TMP DP  RH WIND       PRES   REMARKS
PATUXENT RIVER CLOUDY    29  28  96 CALM      30.36S
ST INIGOES     FRZ RAIN  31  27  85 SE8       30.34F FOG     WCI  23
LEONARDTOWN*   CLOUDY    32  30  93 CALM      30.37S

$$

MDZ003>005-020000-
NORTH CENTRAL MARYLAND

CITY           SKY/WX    TMP DP  RH WIND       PRES   REMARKS
FREDERICK*     FRZ RAIN  32  27  80 CALM      30.34F
HAGERSTOWN APT CLOUDY    31  27  85 S5        30.27F FOG
WESTMINSTER*   MIX PCPN  30  28  93 S5        30.27F

$$

MDZ501>502-020000-
WESTERN MARYLAND

CITY           SKY/WX    TMP DP  RH WIND       PRES   REMARKS
OAKLAND*       CLOUDY    36 N/A N/A W10G23    30.15F FOG     WCI  28
CUMBERLAND*    CLOUDY    32  28  86 CALM      30.28F

$$

VAZ025>031-020000-
SHENANDOAH VALLEY

CITY           SKY/WX    TMP DP  RH WIND       PRES   REMARKS
WINCHESTER*    CLOUDY    32  28  86 SE3       30.26F
FRONT ROYAL*   CLOUDY    32  30  93 CALM      30.25F
LURAY*         CLOUDY    41  34  75 SW7       30.24F
NEW MARKET*    CLOUDY    36  29  78 W3        30.24F
STAUNTON*      MOCLDY    38  31  77 S5        30.25F
WAYNESBORO*    MOCLDY    36  31  82 CALM      30.24F

$$

WVZ021-048>050-054>055-020000-
EASTERN WEST VIRGINIA PANHANDLE

CITY           SKY/WX    TMP DP  RH WIND       PRES   REMARKS
MARTINSBURG    CLOUDY    32  28  85 E3        30.28F FOG
PETERSBURG*    NOT AVBL

$$

VAZ036>039-050-020000-
CENTRAL FOOTHILLS

CITY           SKY/WX    TMP DP  RH WIND       PRES   REMARKS
CHARLOTTESVILL LGT RAIN  31  28  89 S7        30.30F
CULPEPER*      MIX PCPN  32  30  93 S3        30.31F
ORANGE*        MIX PCPN  32  32 100 CALM      30.32F
GORDONSVILLE*  CLOUDY    31  29  94 S6        30.31F
WARRENTON*     LGT RAIN  32  32 100 SW3       30.31F

$$

VAZ055>057-020000-
NORTH AND CENTRAL PIEDMONT

CITY           SKY/WX    TMP DP  RH WIND       PRES   REMARKS
FREDERICKSBRG* CLOUDY    33  33 100 CALM      30.35F
STAFFORD*      MIX PCPN  31  32 100 S3        30.38F

$$

NCZ024-NYZ072-PAZ021-071-VAZ022-071-020000-
OTHER REGIONAL OBSERVATIONS

CITY           SKY/WX    TMP DP  RH WIND       PRES   REMARKS
NEW YORK CITY  LGT SNOW  27  23  85 CALM      30.34F FOG
PHILADELPHIA   FRZ RAIN  30  27  88 S6        30.35F FOG
PITTSBURGH     SNOW      33  32  96 S5        30.18F VSB 1/4
ROANOKE        CLOUDY    37  28  70 SE5       30.33F
RICHMOND       CLOUDY    32  30  92 SE6       30.35F FOG
RALEIGH        CLOUDY    34  31  88 SE3       30.37F FOG

$$

ANZ530>537-020000-
MARINE OBSERVATIONS

STATION/POSITION TIME  TEMP    WIND        PRES
                       AIR SEA DIR/SP/G
                 (UTC) (F)     (DEG/KT/KT) (MB)
THOMAS PT LIGHT  2300   29 31     CALM     1028.5F
BALT KEY BRIDGE  2200   29     140/  3/  3 1027.7F
COVE POINT       2200   26        CALM     1028.2F
LEWISETTA        2200   28 33              1028.5F
SOLOMONS ISLAND  2200      32                N/A

$$



USA.gov is the U.S. government's official web portal to all federal, state and local government web resources and services.